星链-11393 (STARLINK-11393)

导读

STARLINK-11393是美国太空探索技术公司SpaceX星链星座的成员,于2024年11月18日发射。它延续星链低轨互联网星座部署,依托近地轨道部署,可为全球偏远地区、海洋、空中等场景提供低延迟宽带互联网接入服务,进一步扩充了星链星座的服务覆盖能力与通信容量。

基本信息
目录编号:
62016
目录名称:
STARLINK-11393
国际标识:
2024-213J
轨道中心:
EARTH
卫星名称:
星链-11393
卫星全名:
星链-11393 (STARLINK-11393)
卫星状态:
在轨 (已飞行662 天)
发射日期:
2024-11-18 UTC
国别 :
美国 (US)
星等 :
--
该卫星已列入 空间交会检测服务 Space Conjunction Data Service (SCDS) ,当前飞行风险评估等级: 无高风险
轨道信息
数据来源 国际轨道数据
星历时间: 2026-09-11T14:02:03+0800
6小时前
查看轨道信息
半长轴: 6737.758km
偏心率: 0.0001254
轨道倾角: 53.161°
近地点辐角 88.816°
升交点赤经 206.220°
平近点角 271.300°
近地点: 358.776km
远地点: 360.466km
周期: 91.735分钟
每日圈数: 15.69747
详细信息
固有亮度:
5
最大亮度:
2.5
卫星平台:
Starlink V1.0
覆盖范围:
全球
运营商:
太空探索技术公司
运营商所在国:
美国
制造商(研发单位):
太空探索技术公司
制造商所在国:
美国
使用方式:
暂无
卫星简介
Starlink 计划是 SpaceX 推出的全球卫星互联网项目,通过发射低轨道卫星,为全球尤其是偏远地区提供高速、低延迟的互联网服务。自 2019 年起,Starlink 已部署数千颗卫星,旨在缩小全球数字鸿沟,推动互联网普及。该项目还为军事、航空等行业提供通信支持,带来广泛经济效益。
2D轨道图
3D轨道图
轨道高度分析图
轨道倾角分析图
轨道综合分析图
查看轨道综合分析图
交会数据列表
事件ID 空间交会对象 最接近时刻(TCA) 交会距离 交会风险概率(CRP) 交会风险指数(CRI) 操作
CDM_260912-005106-072906-201621
2026-09-12T
00:51:11+0000
1.716 km
极远距离
2.817852E-6 低风险 0.44
CDM_260910-043406-201606-366921
2026-09-10T
04:34:29+0000
2.262 km
极远距离
9.469001E-7 极低风险 0.35
与全量物体交会距离演化趋势
与全量物体交会风险概率演化趋势